Regional Weather Roundup
Issued by NWS

Home | Current Version | Previous Version | Text Only | Print | Product List | Glossary Off
Versions: 1 2 3 4 5 6 7 8 9 10 11 12 13 14 15 16 17 18 19 20 21 22 23 24 25 26 27 28 29 30 31 32 33 34 35 36 37 38 39 40 41 42 43 44 45 46 47 48 49 50

000
ASUS43 KMPX 230401
RWRMN
WEATHER ROUNDUP FOR MINNESOTA
NATIONAL WEATHER SERVICE TWIN CITIES/CHANHASSEN MN
1100 PM CDT FRI MAY 22 2015


NOTE: "FAIR" INDICATES FEW OR NO CLOUDS BELOW 12,000 FEET WITH NO
SIGNIFICANT WEATHER AND/OR OBSTRUCTIONS TO VISIBILITY. N/A MEANS
CURRENT SKY AND/OR WEATHER CONDITIONS ARE NOT AVAILABLE.

MNZ060>063-068>070-230500-
   Twin Cities Metro

CITY           SKY/WX    TMP DP  RH WIND       PRES   REMARKS
TWIN CITIES    MOCLDY    63  38  39 SE6       30.20R
ST PAUL        MOCLDY    58  46  64 CALM      30.21R
CRYSTAL        MOCLDY    56  41  57 CALM      30.19R
BLAINE         MOCLDY    59  41  51 CALM      30.20S
LAKEVILLE      MOCLDY    52  43  71 CALM      30.21R
EDEN PRAIRIE   MOCLDY    61  42  49 CALM      30.19R
SOUTH ST PAUL  MOCLDY    58  44  59 CALM      30.20S
LAKE ELMO      FAIR      54  43  66 CALM      30.22R
$$
MNZ001>005-007-008-013>017-022>024-027-028-230500-
   Northwest Minnesota

CITY           SKY/WX    TMP DP  RH WIND       PRES   REMARKS
BEMIDJI        CLEAR     60  40  46 SW5       30.16R
HALLOCK        PTCLDY    59  45  58 S8        30.10S
ROSEAU         PTCLDY    61  45  55 SW8       30.11S
WARROAD        PTCLDY    64  45  48 SW7       30.11S
THIEF RVR FALL CLEAR     61  37  41 CALM      30.14S
CROOKSTON      CLEAR     61  39  44 SW3       30.14S
FOSSTON        CLEAR     55  39  54 S5        30.16S
DETROIT LAKES  PTCLDY    61  39  44 CALM      30.18S
MOORHEAD       CLEAR     63  39  42 SE3       30.15S
PARK RAPIDS    CLEAR     59  39  47 CALM      30.17R
MAHNOMEN       FAIR      58  42  55 S5        30.15S
$$
MNZ006-009>011-018-025>026-230500-
   North Central Minnesota

CITY           SKY/WX    TMP DP  RH WIND       PRES   REMARKS
BAUDETTE       PTCLDY    57  42  57 S3        30.11S
INTL FALLS     MOCLDY    60  38  43 W5        30.11S
WASKISH        CLEAR     63  39  42 CALM      30.13S
BIG FORK       CLEAR     48  43  81 CALM      30.16S
LONGVILLE      CLEAR     48  43  81 CALM      30.17S
GRAND RAPIDS   CLEAR     54  37  54 S7        30.17S
CRANE LAKE     CLEAR     46  43  87 S3        30.13S
ORR            CLEAR     57  34  41 CALM      30.12S
COOK           CLEAR     57  36  44 SW3       30.15S
WALKER         FAIR      56  39  53 W3        30.16S
$$
MNZ012-019>021-037-230500-
   Northeast Minnesota

CITY           SKY/WX    TMP DP  RH WIND       PRES   REMARKS
DULUTH         CLEAR     56  37  49 SW6       30.18S
ELY            CLEAR     55  36  47 CALM      30.14S
HIBBING        CLEAR     47  36  65 S3        30.16R
EVELETH        CLEAR     46  39  76 CALM      30.17S
DULUTH HARBOR  CLEAR     45  36  70 CALM      30.20S
TWO HARBORS    CLEAR     46  37  71 CALM      30.16S
SILVER BAY     CLEAR     43  36  75 CALM      30.16S
GRAND MARAIS     N/A     38  33  82 CALM      30.16F
G MARAIS ARPRT CLEAR     39  28  65 CALM      30.17F
$$
MNZ029>031-032-039>041-046>048-054>057-064-230500-
   West Central Minnesota

CITY           SKY/WX    TMP DP  RH WIND       PRES   REMARKS
FERGUS FALLS   MOCLDY    64  36  34 E7        30.16S
WHEATON        MOCLDY    54  41  62 SE7       30.16S
MORRIS         MOCLDY    57  43  58 E9        30.15S
ALEXANDRIA     PTCLDY    60  37  42 SE8       30.19R
ELBOW LAKE     FAIR      62  39  42 E5        30.16S
WADENA         PTCLDY    55  43  62 CALM      30.17S
GLENWOOD       FAIR      57  41  54 E7        30.19S
APPLETON       MOCLDY    61  41  48 E6        30.15S
BENSON         MOCLDY    63  36  36 SE6       30.17S
ORTONVILLE     MOCLDY    61  39  44 S7        30.17R
MADISON        MOCLDY    61  43  51 W12G20    30.18R
WILLMAR        FAIR      61  43  51 E7        30.19S
$$
MNZ033>034-036-042>043-049>051-058-059-230500-
   Central Minnesota

CITY           SKY/WX    TMP DP  RH WIND       PRES   REMARKS
ST CLOUD       PTCLDY    52  44  74 CALM      30.19S
SAUK CENTRE    FAIR      55  42  60 CALM      30.19S
PAYNESVILLE    MOCLDY    56  39  52 E6        30.19S
AITKIN         CLEAR     52  41  66 CALM      30.17S
PINE RIVER     CLEAR     52  43  71 CALM      30.21S
BRAINERD       CLEAR     53  42  66 CALM      30.19R
STAPLES        CLEAR     55  39  54 CALM      30.18S
LONG PRAIRIE   FAIR      52  41  66 CALM      30.19S
LITTLE FALLS   CLEAR     52  37  58 CALM      30.19S
LITCHFIELD     MOCLDY    59  45  58 E6        30.20R
BUFFALO        MOCLDY    57  46  66 CALM      30.20S
MAPLE LAKE     MOCLDY    53  47  79 CALM      30.20S
$$
MNZ037-044-045-052-053-230500-
   East Central Minnesota

CITY           SKY/WX    TMP DP  RH WIND       PRES   REMARKS
PRINCETON      PTCLDY    54  43  66 CALM      30.20S
MORA           CLEAR     48  41  76 CALM      30.21F
CAMBRIDGE      PTCLDY    55  43  62 CALM      30.19S
RUSH CITY      PTCLDY    50  41  69 CALM      30.20F
MOOSE LAKE     CLEAR     48  37  66 CALM      30.17S
HINCKLEY       FAIR      48  45  87 CALM      30.19S
CLOQUET        CLEAR     52  39  62 CALM      30.19R
MCGREGOR       CLEAR     54  41  62 CALM      30.19S
$$
MNZ071>073-080-081-089-090-097-098-230500-
   Southwest Minnesota

CITY           SKY/WX    TMP DP  RH WIND       PRES   REMARKS
MONTEVIDEO     MOCLDY    61  36  39 S8        30.17S
GRANITE FALLS  MOCLDY    62  34  36 S13       30.19R
CANBY          MOCLDY    59  43  55 SW14G20   30.20R
MARSHALL       CLOUDY    61  39  44 W17       30.19R
REDWOOD FALLS  CLOUDY    63  36  36 SE7       30.17R
OLIVIA         CLOUDY    59  32  36 E6        30.18R
WINDOM         PTCLDY    59  43  55 W12       30.22R
WORTHINGTON    PTCLDY    57  39  51 W7        30.22S
JACKSON        PTCLDY    59  43  55 W9        30.23R
TRACY          MOCLDY    61  43  52 W9        30.21R
SLAYTON        MOCLDY    57  42  57 W8        30.23R
$$
MNZ065>067-074>077-082>085-091>093-230500-
   South Central Minnesota

CITY           SKY/WX    TMP DP  RH WIND       PRES   REMARKS
MANKATO        CLOUDY    64  36  34 E8        30.20S
NEW ULM        CLOUDY    61  36  39 E7        30.18S
ST JAMES       MOCLDY    61  39  44 S7        30.21R
FAIRMONT       PTCLDY    63  37  39 W13       30.21R
GLENCOE        MOCLDY    60  42  50 E3        30.19S
FARIBAULT      CLOUDY    57  39  51 E3        30.21S
OWATONNA       CLOUDY    57  39  51 E6        30.21S
WASECA         CLOUDY    61  37  41 E8        30.21S
ALBERT LEA     CLOUDY    63  37  39 E6        30.20S
$$
MNZ078>079-086>088-094>096-230500-
   Southeast Minnesota

CITY           SKY/WX    TMP DP  RH WIND       PRES   REMARKS
ROCHESTER      CLOUDY    57  40  52 SE7       30.23R
RED WING       MOCLDY    52  43  71 CALM      30.20S
STANTON        MOCLDY    64  35  34 SE5       30.20R
DODGE CENTER   CLOUDY    59  39  47 SE6       30.22R
WINONA         MOCLDY    55  46  71 CALM      30.23R
AUSTIN         CLOUDY    59  43  55 E5        30.21S
PRESTON        CLOUDY    60  39  45 E3        30.23S
$$
ABBREVIATIONS USED IN REMARKS
   TC - TEMPERATURES IN CELSIUS
  WCI - WIND CHILL INDEX
   HX - HEAT INDEX
  VSB - VISIBILITY
$$



USA.gov is the U.S. government's official web portal to all federal, state and local government web resources and services.